[[{"header":{"parameterUnit":"m.s-1","parameterCategory":1,"la1":30.2991,"la2":30.254,"lo1":-89.0895,"lo2":-89.0444,"dy":0.0017,"dx":0.0017,"nx":28,"ny":28,"refTime":"2025-12-27T09:00:00:Z","depth":0,"parameterNumber":2,"parameterNumberName":"U-component_of_WINDS"},"data":[0,0,0,0,0,0,0,0,0,0,0,0,0,0,0,0,0,0,0,0,0,0,0,0,0,0,0,0,0,0,0,0,0,0,0,0,0,0,0,0,0,0,0,0,0,0,0,0,0,0,0,0,0,0,0,0,0,0,0.9572,0.9572,0,0.954,0.954,0.954,0.95,0.95,0.9499,0.9499,0.9466,0.9465,0.9465,0,0,0,0,0,0,0,0,0,0,0,0,0,0.9597,0.9596,0.9572,0.9572,0.9571,0.954,0.954,0.954,0.9501,0.95,0.9499,0.9498,0.9466,0.9465,0.9465,0,0,0,0,0,0,0,0,0,0,0,0,0,0.9578,0.9596,0.9572,0.9548,0.9546,0.9541,0.954,0.9539,0.9501,0.95,0.9499,0.9498,0.9466,0.9465,0.9465,0.9481,0,0,0.9463,0.9463,0,0,0,0,0,0,0,0,0.9579,0.9577,0.9552,0.955,0.9547,0.9523,0.9536,0.952,0.9501,0.9518,0.9499,0.9498,0.9486,0.9483,0.9479,0.9479,0.9478,0.9463,0.9463,0.9463,0.9463,0,0,0,0,0,0,0,0.958,0.9578,0.956,0.9552,0.9549,0.9538,0.9534,0.9533,0.9507,0.9516,0.9513,0.951,0.9484,0.948,0.9478,0.9477,0.9463,0.9463,0.9463,0.9463,0.9485,0.9486,0,0,0,0,0,0,0.9585,0.9579,0.9561,0.9559,0.9561,0.9538,0.9534,0.9532,0.9507,0.9502,0.9511,0.9508,0.9481,0.9479,0.9477,0.9493,0.9463,0.9463,0.9462,0.9485,0.9486,0.9487,0,0,0,0,0,0,0.9586,0.9584,0.9562,0.9568,0.9564,0.9539,0.9537,0.9532,0.9528,0.9503,0.9498,0.9512,0.948,0.9478,0.9479,0.9491,0.9462,0.9462,0.9484,0.9485,0.9486,0.9525,0,0,0,0,0,0,0.9587,0.9584,0.9591,0.9569,0.9564,0.9566,0.9537,0.9532,0.9527,0.9524,0.9503,0.9498,0.9479,0.948,0.9479,0.949,0.9462,0.9482,0.9484,0.9486,0.9523,0.9528,0.9532,0,0,0,0,0,0.9588,0.9604,0.9592,0.959,0.9572,0.9567,0.9564,0.9542,0.9528,0.9534,0.9518,0.9499,0.949,0.9481,0.9479,0.949,0.9482,0.9484,0.9486,0.9521,0.9527,0.9532,0,0,0,0,0,0,0.9629,0.96,0.9587,0.9596,0.9584,0.956,0.9567,0.955,0.9542,0.9539,0.9511,0.9507,0.9512,0.9501,0.9491,0.9503,0.9483,0.9484,0.951,0.9516,0.952,0.9523,0.9461,0,0,0,0,0,0.9639,0.9637,0.9612,0.9623,0.9617,0.9593,0.959,0.9574,0.956,0.9555,0.9539,0.9526,0.952,0.9517,0.951,0.952,0.9515,0.9527,0.9531,0.9535,0.9537,0.954,0.9545,0.9493,0.9493,0.9493,0,0,0.966,0.9644,0.9645,0.963,0.9619,0.9617,0.9589,0.9589,0.9587,0.9555,0.9556,0.9543,0.9527,0.9533,0.9534,0.9524,0.955,0.9538,0.9541,0.9541,0.9543,0.9548,0.9552,0.9494,0.9494,0.9494,0,0,0.9697,0.9685,0.9692,0.9681,0.9664,0.9647,0.9649,0.9627,0.9617,0.9617,0.9592,0.9589,0.958,0.9569,0.9562,0.9592,0.9574,0.959,0.9614,0.9618,0.9622,0.9625,0.9635,0.9639,0.9592,0.9592,0.9592,0,0.9725,0.9722,0.9697,0.9698,0.9692,0.9662,0.9668,0.9658,0.964,0.9636,0.9624,0.961,0.9597,0.9599,0.9606,0.9601,0.9602,0.9593,0.9623,0.9626,0.9629,0.9639,0.9642,0.9594,0.9594,0.9594,0.9594,0,0.9757,0.9755,0.9762,0.9745,0.9739,0.9743,0.9717,0.9714,0.9698,0.9682,0.9681,0.9664,0.9653,0.9652,0.9636,0.9651,0.9644,0.9628,0.9608,0.9637,0.9645,0.9648,0.9597,0.9596,0.9596,0.9595,0,0,0.9821,0.9788,0.9791,0.9782,0.976,0.9758,0.9759,0.9747,0.9745,0.9732,0.9732,0.9723,0.9707,0.97,0.9682,0.9685,0.9708,0.9668,0.9667,0.9676,0.9722,0.9735,0.974,0.9695,0.9696,0.9696,0.9723,0,0.9854,0.9855,0.9832,0.9838,0.9835,0.9805,0.9806,0.9792,0.9776,0.9771,0.9753,0.9747,0.9727,0.9722,0.9723,0.9705,0.9717,0.9703,0.9694,0.9694,0.97,0.9744,0.9758,0.9785,0.9727,0.9727,0.9727,0,0.9894,0.9883,0.989,0.9865,0.9863,0.9864,0.9851,0.9846,0.9829,0.9817,0.9807,0.9786,0.9784,0.9764,0.976,0.9751,0.9745,0.9735,0.9736,0.9735,0.9714,0.9745,0.9793,0.9797,0.9732,0.9732,0.9732,0,0.994,0.9927,0.9929,0.9922,0.9894,0.9895,0.9883,0.9865,0.9859,0.9846,0.9842,0.9829,0.9823,0.9813,0.9789,0.9776,0.9787,0.9765,0.9777,0.9778,0.9782,0.9782,0.983,0.9777,0.9777,0.9777,0.9777,0,0.998,0.9985,0.9949,0.995,0.9954,0.9926,0.9931,0.9916,0.9899,0.9896,0.9869,0.9866,0.9834,0.9828,0.9808,0.9808,0.9805,0.9795,0.979,0.9798,0.9799,0.9795,0.9792,0.9778,0.9778,0.9778,0.9778,0,1.0033,1.0009,1.0008,0.9981,0.9974,0.9978,0.9955,0.9954,0.9936,0.9932,0.9929,0.9901,0.9892,0.9866,0.985,0.9837,0.9842,0.9832,0.9848,0.9845,0.9858,0.9858,0.9906,0.9911,0.9855,0.9855,0.9856,0,1.006,1.0063,1.0036,1.0032,1.0021,1.0015,1.0008,0.998,0.9974,0.9952,0.9954,0.9942,0.9932,0.9918,0.9895,0.9883,0.9873,0.989,0.9871,0.9878,0.9873,0.9873,0.9873,0.9895,0.9896,0.9897,0.9897,0,1.0111,1.0099,1.009,1.0077,1.007,1.0058,1.0045,1.0043,1.001,1.0005,0.9995,0.9986,0.9969,0.9958,0.9941,0.9928,0.9907,0.9903,0.9905,0.9914,0.9923,0.9918,0.986,0.9903,0.9902,0.9902,0.9901,0.9901,1.0152,1.0153,1.0133,1.0124,1.0111,1.0099,1.0096,1.0077,1.0068,1.0053,1.0036,1.0027,1.0007,0.9983,0.9971,0.9963,0.9952,0.9955,0.9956,0.9957,0.9961,0.9923,0.996,0.9959,0.9959,0.9959,0.9959,0,1.0202,1.0187,1.0179,1.0161,1.0153,1.0133,1.0117,1.0112,1.0105,1.0088,1.0078,1.0065,1.0053,1.0029,1.0014,1.0013,1.0003,1.001,1.001,1.0007,0.9971,0.9971,1.0018,1.0018,1.0018,1.0018,1.0018,1.0018,1.0227,1.0227,1.0212,1.0204,1.0189,1.0181,1.0173,1.0161,1.0147,1.0134,1.0124,1.0108,1.0088,1.0071,1.0059,1.0052,1.0048,1.0058,1.0048,1.0016,1.001,1.0005,1.0004,1.0058,1.0058,1.0085,1.0085,1.0085]},{"header":{"parameterUnit":"m.s-1","parameterCategory":1,"la1":30.2991,"la2":30.254,"lo1":-89.0895,"lo2":-89.0444,"dy":0.0017,"dx":0.0017,"nx":28,"ny":28,"refTime":"2025-12-27T09:00:00:Z","depth":0,"parameterNumber":3,"parameterNumberName":"V-component_of_WINDS"},"data":[0,0,0,0,0,0,0,0,0,0,0,0,0,0,0,0,0,0,0,0,0,0,0,0,0,0,0,0,0,0,0,0,0,0,0,0,0,0,0,0,0,0,0,0,0,0,0,0,0,0,0,0,0,0,0,0,0,0,2.3969,2.3967,0,2.3759,2.3756,2.3754,2.3663,2.3664,2.3664,2.3664,2.3452,2.3446,2.344,0,0,0,0,0,0,0,0,0,0,0,0,0,2.4296,2.429,2.3969,2.3967,2.3964,2.3759,2.3756,2.3753,2.3663,2.3664,2.3664,2.3664,2.3454,2.3447,2.344,0,0,0,0,0,0,0,0,0,0,0,0,0,2.4127,2.4289,2.397,2.3894,2.3886,2.376,2.3756,2.3752,2.3663,2.3664,2.3664,2.3665,2.3456,2.3448,2.3439,2.3373,0,0,2.3411,2.3408,0,0,0,0,0,0,0,0,2.4137,2.4115,2.3908,2.3899,2.3889,2.3738,2.3793,2.3626,2.3663,2.3748,2.3664,2.3665,2.3547,2.3531,2.349,2.3363,2.3354,2.3411,2.3405,2.3401,2.3399,0,0,0,0,0,0,0,2.4148,2.4123,2.3886,2.3905,2.3894,2.3872,2.3848,2.3761,2.3647,2.374,2.3733,2.3709,2.3542,2.3499,2.3484,2.3351,2.3411,2.3403,2.3397,2.3394,2.316,2.316,0,0,0,0,0,0,2.4172,2.4134,2.3893,2.388,2.4017,2.3866,2.3839,2.3786,2.3648,2.3627,2.3709,2.3706,2.3514,2.3495,2.3477,2.339,2.3401,2.3393,2.3388,2.3161,2.316,2.3159,0,0,0,0,0,0,2.4179,2.4151,2.3901,2.4005,2.3971,2.3859,2.38,2.3781,2.3738,2.3624,2.3604,2.3686,2.3514,2.3489,2.3399,2.3382,2.3389,2.3381,2.3162,2.3161,2.316,2.3218,0,0,0,0,0,0,2.4189,2.4155,2.4128,2.4005,2.3966,2.3827,2.3799,2.3777,2.3723,2.3716,2.3597,2.3578,2.3512,2.3413,2.339,2.3369,2.3374,2.3163,2.3162,2.316,2.3217,2.3219,2.322,0,0,0,0,0,2.4201,2.4153,2.4127,2.4098,2.393,2.3826,2.3804,2.3728,2.3722,2.3694,2.3621,2.3581,2.3388,2.3405,2.3378,2.3355,2.3164,2.3162,2.316,2.3216,2.3219,2.322,0,0,0,0,0,0,2.4278,2.4136,2.4105,2.4016,2.3934,2.3811,2.3774,2.3733,2.3652,2.3649,2.356,2.3534,2.3452,2.3394,2.3416,2.3284,2.3273,2.3265,2.3324,2.3325,2.3327,2.3342,2.3366,0,0,0,0,0,2.4285,2.4211,2.4091,2.4024,2.3984,2.3887,2.3838,2.3787,2.3699,2.3664,2.3584,2.3501,2.3421,2.337,2.329,2.3209,2.3182,2.3179,2.3181,2.3183,2.3178,2.313,2.3128,2.3153,2.3153,2.3153,0,0,2.4298,2.4211,2.417,2.4038,2.3968,2.3894,2.3858,2.3782,2.3726,2.3652,2.3562,2.3501,2.3402,2.3316,2.3275,2.3266,2.3165,2.3181,2.3183,2.3176,2.3128,2.3126,2.3124,2.3152,2.3152,2.3152,0,0,2.4283,2.4211,2.4146,2.4077,2.3971,2.3906,2.3892,2.3774,2.373,2.3638,2.3581,2.3515,2.338,2.3311,2.3259,2.322,2.318,2.3196,2.3205,2.316,2.3158,2.3156,2.3141,2.3137,2.3192,2.3192,2.3192,0,2.4313,2.4199,2.4119,2.4045,2.3989,2.3918,2.3852,2.3789,2.3664,2.3627,2.3619,2.3447,2.3375,2.3272,2.3263,2.3223,2.3203,2.3209,2.3164,2.3161,2.3158,2.3144,2.3138,2.3194,2.3194,2.3194,2.3194,0,2.424,2.4162,2.4123,2.4003,2.3942,2.3873,2.3783,2.3731,2.3686,2.3623,2.353,2.3442,2.3343,2.3315,2.327,2.3206,2.3204,2.3181,2.3168,2.316,2.3144,2.3138,2.3198,2.3197,2.3196,2.3196,0,0,2.4268,2.4104,2.4091,2.4035,2.3914,2.3852,2.3781,2.3682,2.364,2.3556,2.3494,2.3381,2.3359,2.33,2.3248,2.3208,2.3182,2.319,2.3186,2.3192,2.3106,2.3123,2.3118,2.3156,2.3155,2.3154,2.3114,0,2.4237,2.4104,2.403,2.3928,2.3855,2.3787,2.3724,2.3644,2.3583,2.3513,2.3446,2.3367,2.3345,2.3308,2.3266,2.3195,2.3164,2.3196,2.3098,2.3096,2.3124,2.311,2.3128,2.3095,2.3108,2.3107,2.3106,0,2.4182,2.4098,2.3989,2.3876,2.3843,2.3788,2.3692,2.3626,2.3533,2.3492,2.3426,2.3373,2.3296,2.329,2.3183,2.3207,2.3162,2.3121,2.3118,2.3105,2.31,2.3097,2.3082,2.3078,2.3096,2.3097,2.3097,0,2.4213,2.4073,2.3989,2.3944,2.381,2.3773,2.3715,2.3623,2.3569,2.3486,2.345,2.3361,2.3311,2.3243,2.3168,2.3171,2.3069,2.3056,2.3033,2.3035,2.3014,2.3016,2.2992,2.2987,2.2987,2.2987,2.2987,0,2.4186,2.4121,2.4001,2.395,2.3876,2.3792,2.3722,2.3659,2.3578,2.3514,2.3451,2.3392,2.3297,2.3227,2.3169,2.3089,2.3068,2.3033,2.3018,2.3038,2.3042,2.3007,2.3007,2.2986,2.2986,2.2987,2.2987,0,2.4207,2.4124,2.4028,2.3909,2.3877,2.3829,2.3727,2.3675,2.3611,2.3531,2.3507,2.3407,2.3321,2.324,2.3126,2.3087,2.3007,2.2988,2.3038,2.303,2.3011,2.3014,2.2963,2.2952,2.2956,2.2956,2.2956,0,2.4195,2.4143,2.4018,2.397,2.3914,2.3837,2.3782,2.3698,2.3642,2.3533,2.3495,2.3404,2.3327,2.3194,2.3113,2.3025,2.3003,2.2991,2.299,2.3012,2.3003,2.3006,2.3001,2.2993,2.2994,2.2994,2.2994,0,2.4181,2.4143,2.4064,2.3971,2.3906,2.3829,2.375,2.3715,2.3616,2.3557,2.3468,2.3408,2.3292,2.3203,2.3106,2.3049,2.3005,2.2995,2.2985,2.3005,2.3036,2.3018,2.3042,2.2997,2.2997,2.2996,2.2996,2.2996,2.4184,2.4136,2.404,2.3955,2.3886,2.3814,2.3759,2.3688,2.3612,2.3509,2.3464,2.3375,2.3284,2.315,2.3093,2.3022,2.3012,2.2998,2.2994,2.2992,2.2996,2.3048,2.3005,2.3005,2.3004,2.3004,2.3004,0,2.4167,2.4102,2.4025,2.3915,2.3849,2.3812,2.3723,2.367,2.3591,2.351,2.3435,2.3333,2.3247,2.3159,2.3068,2.3029,2.3007,2.3008,2.301,2.2997,2.301,2.3028,2.3027,2.3027,2.3027,2.3027,2.3027,2.3027,2.415,2.4066,2.4016,2.3897,2.3833,2.3743,2.3695,2.3629,2.3563,2.3452,2.3379,2.3321,2.3237,2.314,2.306,2.3036,2.3006,2.3012,2.2983,2.2997,2.2996,2.2995,2.3011,2.3007,2.3007,2.2976,2.2975,2.2975]}]]